#timestamp,LO_Frequency,Hit,StdDev 
1509552015.9,286046994.4,N
1509552035.7,286046990.1,N
1509552055.5,286046989.1,N
1509552075.4,286046989.8,N
1509552095.2,286046987.7,Y
1509552115.0,286046999.5,P
1509552116.0,286046999.5,N
1509552135.8,286046997.2,N
1509552155.6,286046997.8,N
1509552175.5,286047000.7,N
1509552195.3,286046996.7,N
1509552215.1,286046996.0,N
1509552235.9,286046996.3,N
1509552255.7,286046994.0,Y
1509552275.5,286047002.7,P
1509552295.4,286046998.3,N
1509552315.2,286046998.2,N
1509552335.0,286046999.9,N
1509552335.9,286046999.9,N
1509552355.8,286047000.4,N
1509552375.6,286047000.6,N
1509552395.4,286046996.7,N
1509552415.3,286046999.5,N
1509552435.1,286047002.6,N
1509552455.9,286047002.7,N
1509552475.7,286047001.7,N
1509552495.5,286046998.5,N
1509552515.4,286046995.4,N
1509552535.2,286046997.8,N
1509552555.0,286046998.3,N
1509552555.9,286046998.3,N
1509552575.8,286047000.5,N
1509552595.6,286046997.3,N
1509552615.4,286046997.8,N
1509552635.3,286046996.2,N
1509552655.1,286046996.7,N
1509552675.8,286046995.1,N
1509552695.7,286046999.3,N
1509552715.5,286046999.7,N
1509552735.3,286047001.2,N
1509552755.2,286046998.1,N
1509552775.0,286047002.1,N
1509552775.9,286047002.1,N
1509552795.7,286047003.8,N
1509552815.6,286047001.4,N
1509552835.4,286047003.8,N
1509552855.2,286047002.2,N
1509552875.1,286047002.6,N
1509552876.0,286047002.6,N
1509552895.8,286047001.9,N
1509552915.7,286047005.6,N
1509552935.5,286047006.0,N
1509552955.3,286047003.9,N
1509552975.2,286046999.7,N
1509552995.9,286047001.6,N
1509553015.7,286047004.5,N
1509553035.6,286047008.8,N
1509553055.4,286047006.4,N
1509553075.2,286047005.8,N
1509553095.1,286047003.7,N
1509553096.0,286047003.7,N
1509553115.8,286047000.6,N
1509553135.6,286047003.3,N
1509553155.5,286047000.6,N
1509553175.3,286047001.2,N
1509553195.1,286046993.8,N
1509553215.9,286046995.8,N
1509553235.7,286046993.8,N
1509553255.5,286046992.0,N
1509553275.4,286046994.7,N
1509553295.2,286046995.5,N
1509553315.0,286046992.0,N
1509553315.9,286046992.0,N
1509553335.8,286046990.1,N
1509553355.6,286046992.7,N
1509553375.4,286046987.2,N
1509553395.3,286046988.7,N
1509553415.1,286046990.6,N
1509553435.8,286046989.2,N
1509553455.7,286046986.9,N
1509553475.5,286046988.7,N
1509553495.3,286046989.1,N
1509553515.2,286046989.4,N
1509553535.0,286046988.8,N
1509553535.9,286046988.8,N
1509553555.8,286046988.9,N
1509553575.6,286046991.0,N
1509553595.4,286046990.8,N
1509553615.3,286046993.1,N
1509553635.1,286046992.5,N
1509553636.0,286046992.5,N
1509553655.8,286046991.3,N
1509553675.7,286046991.2,N
1509553695.5,286046990.3,N
1509553715.3,286046994.7,N
1509553735.2,286046990.0,Y
1509553755.0,286046996.5,P
1509553755.9,286046996.5,N
1509553775.7,286046999.3,N
1509553795.6,286046998.8,N
1509553815.4,286046998.7,N
1509553835.2,286046997.1,N
1509553855.1,286046995.3,N
1509553856.0,286046995.3,N
1509553875.8,286046997.0,N
1509553895.7,286047000.5,N
1509553915.5,286047000.7,N
1509553935.3,286047001.4,N
1509553955.2,286047001.3,N
1509553975.9,286047000.5,N
1509553995.7,286047002.0,N
1509554015.6,286047001.0,N
1509554035.4,286047003.8,N
1509554055.2,286047004.3,N
1509554075.1,286047001.3,N
1509554076.0,286047001.3,N
1509554095.8,286047007.1,N
1509554115.6,286047001.4,N
1509554135.5,286047005.5,N
1509554155.3,286047001.9,N
1509554175.1,286047002.8,N
1509554195.9,286047001.5,N
1509554215.7,286047000.9,N
1509554235.5,286047002.1,N
1509554255.4,286047001.5,N
1509554275.2,286046999.9,N
1509554295.0,286047001.8,N
1509554295.9,286047001.8,N
1509554315.8,286047005.5,N
1509554335.6,286047006.2,N
1509554355.4,286047005.6,N
1509554375.3,286047005.5,N
1509554395.1,286047002.0,N
1509554415.8,286047002.5,N
1509554435.7,286047002.1,N
1509554455.5,286047001.4,N
1509554475.3,286047002.6,N
1509554495.2,286047002.1,N
1509554515.0,286047000.0,N
1509554515.9,286047000.0,N
1509554535.8,286047002.7,N
1509554555.6,286047004.1,N
1509554575.4,286046999.8,N
1509554595.3,286047002.8,N
1509554615.1,286047001.9,N
1509554616.0,286047001.9,N
1509554635.8,286047003.3,N
1509554655.7,286047005.4,Y
1509554675.5,286047002.5,P
1509554695.3,286047002.1,P
1509554715.2,286046998.2,P
1509554735.0,286047004.3,N
1509554735.9,286047004.3,N
1509554755.7,286047002.3,N
1509554775.6,286046998.6,N
1509554795.4,286047001.8,N
1509554815.2,286047004.4,N
1509554835.1,286047004.2,N
1509554836.0,286047004.2,N
1509554855.8,286046999.4,N
1509554875.7,286046999.7,N
1509554895.5,286047000.7,N
1509554915.3,286046998.3,N
1509554935.2,286047000.3,N
1509554955.9,286047000.0,N
1509554975.7,286047000.1,N
1509554995.6,286047001.1,N
1509555015.4,286046997.0,N
1509555035.2,286046997.5,N
1509555055.1,286046997.8,N
1509555056.0,286046997.8,N
1509555075.8,286046996.7,N
1509555095.6,286046997.2,N
1509555115.5,286046999.9,N
1509555135.3,286047003.9,N
1509555155.1,286047003.0,N
1509555175.9,286047004.0,N
1509555195.7,286047003.2,N
1509555215.5,286047003.5,N
1509555235.4,286047000.1,N
1509555255.2,286046998.1,N
1509555275.0,286047001.8,N
1509555275.9,286047001.8,N
1509555295.8,286046998.9,N
1509555315.6,286046996.3,N
1509555335.4,286046995.7,N
1509555355.3,286046997.6,N
1509555375.1,286046995.3,N
1509555376.0,286046995.3,N
1509555395.8,286046993.8,N
1509555415.7,286046993.4,N
1509555435.5,286046994.3,N
1509555455.3,286046992.4,N
1509555475.2,286046993.9,N
1509555495.9,286046990.2,N
1509555515.7,286046988.7,Y
1509555535.6,286046995.1,P
1509555555.4,286046995.6,N
1509555575.2,286046997.3,N
1509555595.1,286046996.3,Y
1509555596.0,286046996.3,P
